Location: Borgo
(42.3939°N, 9.2791°E)
Time: 11:57:49
(UTC+00:00)

ISS - Pass Details

Date: 26 April 2021
Orbit: 417 x 422 km, 51.6° (Epoch: 15 May)

Event Time Altitude Azimuth Distance (km) Brightness Sun altitude
Exits shadow 03:46:10 - 223° (SW) 1,614 -1.4 -7.5°
Reaches altitude 10° 03:46:27 10° 222° (SW) 1,496 -1.5 -7.4°
Maximum altitude 03:49:46 60° 142° (SE) 487 -3.4 -6.9°
Drops below altitude 10° 03:53:06 10° 62° (ENE) 1,507 0.9 -6.3°
Sets 03:55:14 0° 59° (ENE) 2,375 2.6 -5.9°
